Hourly Data Report for April 02, 2004

SHERBROOKE A
QUEBEC

45°26'00.000" N
71°41'00.000" W
241.40 m
7028124
71610
YSC

Download Data

Hourly Data (April 2004)
Hourly Data Report for April 2, 2004
TIME
LST
Temp Definition
°C
Dew Point Definition
°C
Rel Hum Definition
%
Precip. Amount Definition
mm

Wind Dir Definition
10's deg

Wind Spd Definition
km/h
Visibility Definition
km
Stn Press Definition
kPa
Hmdx Definition


Wind Chill Definition


Weather Definition


00:00 4.5 -2.1 62   6 19 15.0 98.47      
01:00 4.1 -2.7 61   6 17 15.0 98.45      
02:00 3.5 -3.3 61   6 17 15.0 98.52     Rain
03:00 3.0 -3.4 63   6 15 15.0 98.50      
04:00 1.9 -1.8 76   5 13 15.0 98.51     Rain
05:00 1.1 -1.3 84   3 13 15.0 98.48      
06:00 1.3 -1.4 82   5 13 15.0 98.45      
07:00 1.8 -1.6 78   5 9 15.0 98.45      
08:00 2.3 -2.2 72   6 19 24.1 98.42     Cloudy
09:00 2.4 -0.8 79   5 13 19.3 98.41     Rain
10:00 2.6 0.4 85   5 15 19.3 98.39     Rain
11:00 2.6 1.0 89   5 15 12.9 98.35     Rain
12:00 3.0 1.3 89   4 11 16.1 98.36     Rain
13:00 3.8 2.0 88   3 11 19.3 98.32     Rain
14:00 4.7 2.0 83   6 9 19.3 98.27     Rain
15:00 4.4 2.5 87   6 13 19.3 98.24     Rain
16:00 4.4 2.6 88   5 13 19.3 98.22     Rain Showers
17:00 3.8 2.5 91   5 13 16.1 98.18     Rain Showers
18:00 3.4 2.0 91   5 9 15.0 98.14     Rain
19:00 3.0 1.9 92   5 11 15.0 98.10      
20:00 3.0 1.7 91   5 13 15.0 98.12     Rain
21:00 2.7 1.4 91   3 9 15.0 98.09      
22:00 2.5 1.4 92   3 7 11.3 98.03     Rain
23:00 2.5 1.4 92   4 7 15.0 97.99      

Notes on Data Quality.

Legend

  • E = Estimated
  • M = Missing
  • NA = Not Available*
  • [empty] = Indicates an unobserved value
Date modified: